Theta_e
298 299 300 300 300 300 300 299 298 298 299 299 298 298 298 298 297 298 298 298 299 299 299 299 299 298 298 299 299 299 299 299 299 298 297 297 298 298 299 299 298 298 297 297 297 297 296 296 296 295 295 295 295 295 295 295 295 295 295 295 295 295 295 295 295 295 295 295 295
298 298 298 297 297 299 299 298 298 298 299 299 299 299 298 298 298 298 298 298 299 299 299 299 298 298 298 299 298 299 298 299 298 298 297 298 298 298 298 298 298 297 297 297 296 296 296 295 295 295 295 295 295 295 295 296 296 296 296 296 296 296 296 296 296 296 296 296 296
298 298 298 298 298 299 299 298 298 298 298 299 299 299 299 298 298 298 298 298 298 299 299 299 298 298 298 298 298 298 298 298 298 298 298 298 298 298 298 298 298 297 296 296 296 296 296 296 296 296 296 296 296 296 296 297 297 297 297 297 296 296 297 297 297 296 296 296 295
299 298 298 298 298 298 298 298 298 298 298 299 299 298 298 298 298 298 298 298 298 298 298 298 297 297 298 298 298 298 298 297 297 297 297 297 297 297 298 297 297 297 297 297 297 297 296 297 297 297 297 297 297 297 297 297 297 297 297 297 297 296 296 296 296 295 295 294 293
298 298 298 298 299 299 298 298 298 299 299 299 298 298 298 297 297 297 297 297 297 298 298 298 297 297 297 297 297 297 298 297 296 296 297 297 297 297 297 297 297 297 297 297 297 297 297 297 298 298 297 297 297 296 296 296 296 295 296 297 297 296 295 295 294 293 292 292 292
297 297 298 298 299 299 299 299 299 299 299 299 298 297 297 297 297 297 297 297 298 298 298 297 297 296 297 298 297 297 297 297 297 297 296 296 296 296 296 296 296 296 296 297 297 297 297 297 297 298 297 297 296 295 295 295 293 293 293 293 293 293 292 291 291 291 291 291 291
297 297 297 297 298 299 299 299 299 299 299 299 298 298 298 297 297 297 297 298 298 298 297 296 296 297 297 297 297 296 296 297 297 296 296 296 296 296 295 295 296 296 296 296 296 296 296 296 296 296 295 294 294 294 294 293 292 292 291 291 291 291 291 290 291 291 290 289 289
297 296 297 297 297 297 298 299 299 299 299 298 298 299 299 298 298 298 298 298 297 297 296 296 297 297 297 296 296 296 296 296 296 296 296 295 295 295 295 295 295 295 295 295 295 295 295 295 295 294 293 293 293 292 292 292 292 291 290 290 290 290 290 290 290 290 289 289 289
297 297 297 297 297 298 298 299 299 299 299 299 299 299 300 299 299 298 298 297 296 296 296 296 297 297 297 296 295 295 295 295 295 295 295 295 294 294 294 294 294 294 294 294 294 294 294 294 293 293 292 292 292 291 291 292 291 290 290 290 290 290 290 290 290 289 289 289 289
297 297 297 298 298 298 298 299 299 299 299 299 299 299 299 297 298 298 298 296 296 296 296 296 296 296 296 296 295 295 295 294 294 294 294 294 293 293 293 293 293 293 293 293 293 293 293 293 292 291 291 291 291 290 291 291 290 289 289 289 289 289 289 289 289 289 289 288 288
297 297 297 297 298 298 298 299 298 298 298 298 298 298 298 297 298 298 297 296 296 296 296 296 296 295 295 295 294 294 294 294 294 294 293 293 293 293 293 293 292 292 292 292 292 292 292 291 290 290 290 290 290 290 290 290 289 289 288 288 288 288 288 288 288 288 288 287 287
297 297 297 297 298 298 298 298 297 297 297 297 297 297 297 297 298 297 297 296 296 295 295 295 295 295 294 294 294 294 294 294 294 293 293 293 293 293 293 292 292 292 292 292 292 291 290 290 289 289 289 290 289 289 289 289 289 288 288 288 288 287 287 287 287 287 287 287 286
297 297 297 297 298 298 298 297 297 296 297 297 296 296 296 297 297 297 296 296 295 295 294 295 295 294 294 294 294 294 294 294 293 293 293 293 293 293 292 292 292 292 292 292 292 291 290 290 289 289 289 289 289 289 289 289 288 287 287 287 287 287 287 287 286 286 287 286 286
297 297 297 297 297 297 297 297 296 296 296 296 296 296 296 296 296 296 296 296 295 294 294 294 294 294 294 294 293 293 293 293 293 293 292 292 292 292 292 291 291 291 291 291 292 291 290 289 289 289 289 289 289 289 289 288 287 287 286 286 286 286 286 286 286 286 286 286 286
297 297 297 297 297 297 297 296 296 296 296 296 296 296 296 296 295 295 295 295 295 294 294 294 293 293 294 294 294 293 293 293 292 292 292 292 292 291 291 291 291 291 291 291 292 291 291 289 289 289 289 289 288 288 288 287 287 286 286 286 286 285 285 286 286 286 286 286 286
297 297 297 297 297 297 297 296 296 296 296 296 295 295 295 295 295 295 295 295 294 294 294 293 293 293 293 293 294 294 293 293 292 292 291 291 291 291 290 290 290 290 290 290 291 291 290 290 290 290 289 289 288 287 287 286 286 286 286 285 285 285 285 285 285 285 285 286 285
297 297 297 297 297 296 296 296 296 296 295 295 295 295 295 295 295 295 294 294 294 294 294 293 293 293 293 293 294 293 293 292 291 291 291 290 290 290 290 290 290 290 290 289 289 289 289 290 290 290 289 289 287 287 286 286 285 285 285 285 285 285 285 285 285 285 285 285 285
297 297 297 296 296 296 296 296 296 295 295 295 295 295 295 295 295 294 294 294 295 294 294 293 293 293 293 294 293 293 292 292 291 291 291 290 290 290 290 290 290 290 289 289 289 289 289 289 290 290 289 288 287 286 285 285 285 284 284 285 285 285 285 285 285 284 284 284 284
296 297 296 296 296 296 296 296 296 295 295 295 295 295 295 295 295 294 294 294 294 294 294 293 293 293 293 293 293 293 292 292 291 291 291 290 290 290 290 290 290 290 289 289 289 289 289 290 290 289 288 287 286 286 285 284 284 284 284 284 284 284 284 284 284 284 284 284 284
296 296 296 296 296 296 296 296 296 296 295 295 295 295 295 295 294 294 294 294 294 295 295 294 293 293 293 293 293 292 292 292 292 291 291 291 291 290 290 290 290 289 289 289 289 289 290 290 289 288 287 287 286 285 284 284 284 283 284 284 284 284 284 284 284 284 284 284 284
296 296 297 296 296 296 296 296 296 296 296 295 295 295 295 295 295 294 294 294 295 295 294 294 293 293 293 293 293 292 292 292 292 292 291 291 291 291 290 290 289 289 289 289 289 289 289 289 288 287 287 286 285 284 284 283 283 283 283 283 283 283 283 283 284 284 284 284 284
297 297 297 297 296 296 296 296 296 296 296 296 296 295 295 295 294 294 295 295 295 295 295 294 294 294 293 293 293 293 293 292 292 292 292 291 291 290 290 290 289 289 289 289 289 289 289 288 288 287 286 285 284 284 283 283 282 282 282 282 283 283 283 283 283 284 284 284 284
297 297 297 297 297 296 296 296 296 296 296 296 295 295 295 294 294 295 295 295 295 295 295 295 294 294 294 293 293 293 292 292 292 292 292 292 291 290 290 289 289 289 288 289 288 288 287 287 287 286 285 284 284 283 283 282 282 282 282 282 282 282 283 283 283 284 284 285 285
297 297 297 297 297 296 296 296 296 296 296 296 295 295 295 294 294 294 294 294 294 294 295 294 294 294 294 294 293 293 292 291 291 292 292 292 291 290 289 289 288 288 288 287 287 287 286 285 285 285 284 284 283 283 282 282 282 282 281 281 282 282 282 283 283 284 284 284 284
297 297 297 297 296 296 296 296 296 296 295 295 295 295 295 294 294 294 294 294 295 295 295 294 294 294 294 294 293 293 292 291 291 291 291 291 290 290 289 288 288 288 287 285 286 287 286 285 284 284 283 283 283 282 282 282 282 281 281 281 281 282 282 282 283 283 284 284 284
297 296 296 296 296 296 296 296 296 296 295 295 295 295 295 294 294 294 294 295 295 294 294 293 293 293 293 293 293 292 292 291 291 291 291 290 290 289 288 288 288 288 287 285 286 286 286 286 285 284 283 282 282 282 281 281 281 281 281 281 281 281 282 282 282 283 283 284 284
296 296 296 296 296 296 296 296 296 296 295 295 295 295 294 294 294 294 295 295 294 293 293 293 293 293 292 293 292 291 291 291 291 291 291 290 289 289 288 288 288 288 287 286 286 286 286 285 285 284 283 282 282 281 281 280 281 281 281 281 281 281 282 282 283 283 283 283 283
296 296 296 296 296 296 296 296 296 295 295 295 295 295 295 295 295 295 294 293 293 293 293 293 293 293 293 292 291 291 290 291 291 291 290 290 289 289 288 288 288 288 287 286 286 286 285 285 284 284 283 282 281 281 281 280 280 280 280 281 281 281 282 282 283 283 283 282 282
296 296 296 296 296 296 296 295 295 295 295 295 295 296 296 296 295 295 294 293 293 293 293 293 293 293 292 291 291 291 291 291 290 290 290 289 289 288 288 288 287 286 286 286 286 285 285 284 284 283 283 282 281 280 280 279 279 279 280 281 281 282 282 282 282 282 282 281 281
296 296 296 296 296 296 295 295 295 295 295 296 296 297 297 296 295 294 294 293 293 293 293 293 293 292 292 291 291 291 291 291 290 290 289 288 288 288 288 287 287 286 285 285 285 285 284 284 284 283 283 282 281 280 279 279 279 280 280 281 281 282 282 282 282 282 281 281 280
296 296 296 295 295 295 295 295 296 296 297 297 298 297 296 295 294 294 294 293 293 293 293 293 293 292 291 291 291 291 291 291 290 289 288 288 287 287 287 287 287 285 285 285 285 285 284 284 283 283 282 282 281 280 279 279 279 280 281 281 282 282 282 282 281 281 281 281 280
296 296 295 295 295 295 295 296 296 297 298 298 297 296 295 294 294 294 294 294 293 293 293 293 293 292 291 291 291 291 291 290 290 289 288 288 287 287 287 287 287 285 284 285 285 284 284 283 283 283 282 282 281 280 280 280 280 281 281 281 282 282 282 281 281 281 281 281 280
296 296 295 295 295 295 296 297 297 298 298 297 296 295 295 294 294 294 294 294 293 293 293 293 292 291 291 290 290 290 290 290 289 288 288 287 287 287 287 287 286 285 283 285 284 284 283 283 283 282 282 282 281 280 280 280 280 281 281 281 281 282 282 282 281 281 281 281 280
296 296 295 295 295 296 297 298 298 298 297 296 295 295 295 294 294 294 293 293 293 293 293 293 292 291 291 290 290 290 290 289 289 289 288 288 288 287 287 286 286 284 283 284 284 284 283 283 283 282 282 282 281 280 280 280 280 281 281 281 281 282 282 282 282 281 281 281 280
296 296 296 295 296 297 298 298 298 297 296 295 295 295 295 295 294 294 294 293 293 293 293 293 292 292 291 291 291 291 290 289 289 289 288 288 288 287 287 286 286 285 284 284 284 283 283 283 282 283 282 282 280 280 280 280 280 280 281 281 281 281 281 282 281 281 281 281 280
296 296 297 296 298 298 298 297 296 296 295 295 295 295 295 295 294 294 294 293 293 293 293 292 292 292 291 291 291 291 290 290 289 289 288 288 287 287 287 286 286 285 283 284 283 283 283 283 282 282 282 281 280 279 279 280 280 280 281 281 281 281 281 281 281 281 281 281 281
296 296 297 298 298 298 297 296 296 295 295 295 295 294 294 294 294 294 294 293 293 293 292 292 291 291 291 290 290 290 290 290 289 288 288 287 287 286 286 286 286 285 283 283 283 283 283 283 282 282 281 280 279 279 279 279 279 280 280 280 281 281 281 281 281 281 281 280 280
297 297 298 298 297 296 296 296 296 295 295 295 295 294 294 294 294 294 293 292 292 292 291 291 291 291 290 290 290 290 290 290 289 288 287 287 286 286 286 286 286 285 284 283 283 283 283 283 282 282 281 279 278 278 279 279 279 279 280 280 280 280 281 280 280 280 280 280 281
298 298 297 296 295 295 295 295 295 295 295 294 294 294 294 294 293 293 293 292 292 292 291 291 290 290 290 290 290 290 290 290 289 288 287 287 287 286 286 286 285 285 285 284 283 283 283 283 282 282 281 279 279 278 278 278 279 279 279 280 280 280 280 280 279 279 280 280 283
297 296 295 295 295 295 295 294 294 294 294 294 294 293 293 293 293 293 293 292 292 292 291 291 290 290 290 289 289 289 289 289 288 288 287 286 287 287 286 285 285 285 285 284 283 283 283 283 282 282 281 279 278 278 278 278 278 278 279 279 279 279 278 279 279 279 279 279 281
296 295 294 294 294 294 294 293 293 293 294 294 293 293 293 293 293 293 293 293 292 292 291 291 290 290 290 289 289 289 288 288 288 288 287 286 286 286 286 285 285 285 285 284 283 283 283 283 283 282 281 279 278 278 278 278 278 278 278 278 278 278 277 277 278 278 279 279 279
Wind_Speed
4 3 2 1 1 1 2 2 1 1 0 0 0 0 0 0 1 1 1 1 1 1 1 1 1 2 2 3 4 4 4 4 4 4 4 4 4 4 4 4 4 4 4 4 4 4 4 4 4 3 3 3 3 3 3 2 3 3 3 4 4 4 4 5 5 6 7 8 6
5 4 2 1 1 1 2 2 2 1 1 1 1 1 1 1 1 1 1 1 1 1 1 1 2 2 3 4 4 4 4 4 4 4 4 5 4 4 4 4 4 4 3 3 3 3 3 3 3 3 3 3 3 4 4 4 4 5 5 6 4 3 3 2 3 3 5 5 5
4 4 3 2 2 1 1 2 2 2 2 2 1 1 1 1 1 1 1 1 1 1 1 2 2 2 3 3 3 3 4 4 4 4 4 4 5 5 4 4 4 4 3 3 2 2 3 3 3 3 3 3 3 3 3 4 4 4 3 3 2 1 1 1 1 2 3 3 4
4 3 3 2 2 2 1 1 1 1 1 1 2 2 2 1 1 1 2 2 2 2 2 2 2 2 2 3 3 4 4 4 4 4 4 4 5 5 5 4 4 4 4 3 3 3 3 3 3 2 2 2 3 2 2 1 0 0 1 2 2 2 2 2 2 3 3 3 3
4 3 3 2 2 2 1 1 1 1 1 1 2 2 2 2 2 2 2 2 2 2 2 2 2 2 2 2 3 4 4 4 4 4 4 4 5 5 5 5 5 4 4 4 3 3 2 2 1 1 2 2 2 2 2 1 1 1 1 2 2 2 2 2 2 2 2 3 3
4 3 2 2 2 2 1 1 1 1 1 1 2 2 2 2 2 2 2 3 3 3 3 2 2 1 2 2 3 3 4 4 3 3 4 4 4 5 5 5 5 5 4 4 3 2 1 1 1 2 2 3 2 2 2 1 1 2 2 1 2 2 2 3 3 3 4 4 5
5 4 4 4 3 3 2 2 2 2 1 2 2 3 3 2 2 2 3 3 3 3 3 2 2 2 2 2 3 3 3 3 3 3 4 4 4 5 5 5 5 5 5 4 3 2 1 2 2 2 2 2 2 2 2 3 3 4 4 4 3 3 4 4 4 4 4 6 7
5 5 4 4 3 3 3 3 2 2 1 2 2 3 2 2 2 2 2 2 2 2 2 2 2 2 2 3 3 3 3 3 3 3 3 3 4 4 5 5 5 5 5 5 4 3 3 2 2 2 2 2 2 3 4 5 5 5 5 5 4 4 4 4 4 4 5 6 7
4 4 4 3 3 3 3 3 3 2 2 2 2 2 2 1 0 1 1 2 2 2 2 2 3 3 3 3 3 3 3 3 3 3 3 3 4 4 4 4 4 4 4 4 4 4 4 3 3 3 3 3 3 4 4 6 6 6 5 5 5 5 5 4 5 5 6 7 7
4 4 3 3 3 3 3 3 3 3 2 2 2 2 3 3 2 1 0 1 1 2 2 3 3 3 3 3 3 3 3 2 2 3 3 3 4 4 4 4 4 4 4 3 3 4 4 4 4 4 4 3 4 4 5 5 6 6 5 4 5 6 6 6 6 6 7 7 7
5 4 3 3 3 3 2 3 3 3 2 2 2 2 2 3 3 2 1 1 1 2 3 3 3 3 3 3 3 3 3 3 3 3 4 4 4 5 5 4 4 4 4 3 3 3 3 3 4 4 5 4 4 5 5 5 6 6 6 5 6 6 7 7 6 6 6 6 7
4 4 3 3 2 2 2 2 2 1 1 1 1 1 0 1 1 1 1 1 1 2 3 3 3 3 3 3 3 3 3 3 4 4 4 4 5 5 5 5 5 4 4 3 3 3 3 3 4 4 5 4 4 4 4 5 5 6 6 6 6 7 7 8 7 7 6 6 7
4 4 3 3 2 2 2 1 1 1 1 1 1 1 0 1 0 1 1 1 1 2 2 3 3 3 3 3 3 3 3 4 4 4 4 5 6 6 5 5 4 4 3 3 2 2 2 3 3 4 4 4 3 3 4 5 5 6 6 7 7 7 8 8 8 8 7 7 7
4 4 3 3 3 2 2 1 1 1 0 0 1 1 0 1 1 1 1 1 1 2 2 2 2 2 3 3 3 4 4 4 4 5 5 6 6 6 5 4 4 4 3 2 1 1 2 2 3 3 3 3 3 4 4 5 5 6 7 8 8 8 9 9 9 9 8 8 8
5 4 4 3 3 2 2 1 1 0 0 0 1 1 0 0 1 1 1 1 1 1 2 2 2 2 3 3 4 4 4 4 4 5 6 6 6 6 5 5 5 4 3 2 1 1 1 2 2 2 3 4 4 5 5 6 6 7 8 8 9 9 10 10 10 9 9 9 9
5 5 4 4 3 2 2 1 1 0 0 1 1 1 0 0 1 1 1 0 1 1 2 2 2 2 3 3 3 3 3 4 4 5 6 6 6 6 5 5 5 4 4 3 2 2 2 1 2 3 3 4 5 5 6 7 7 7 8 9 9 9 10 10 10 10 10 9 9
6 5 5 4 3 3 2 1 1 0 0 1 1 1 0 0 0 1 1 0 1 1 2 2 2 2 2 2 2 2 3 3 4 5 5 6 6 6 6 5 5 4 4 4 4 3 3 1 2 3 4 4 5 5 6 7 7 7 8 8 9 9 10 10 10 10 10 10 10
6 5 5 4 3 3 2 2 1 1 1 1 1 1 1 0 0 0 0 1 1 1 2 2 2 2 2 2 2 2 2 3 4 4 4 5 6 6 6 5 5 4 4 4 4 4 3 2 2 4 4 4 4 5 5 6 6 7 8 9 9 9 10 10 11 10 10 10 11
6 5 4 4 3 3 2 2 2 1 1 1 1 1 1 1 1 1 1 2 2 2 2 2 2 2 2 3 3 2 2 3 4 4 4 5 5 6 6 5 5 4 4 4 4 4 3 1 3 4 4 4 4 4 5 6 6 7 8 9 9 10 10 10 10 10 10 10 10
5 4 4 3 3 3 3 2 2 2 2 2 2 2 2 2 2 2 2 2 2 1 2 2 2 3 3 3 3 3 3 2 3 4 4 5 5 5 6 5 5 4 4 4 4 3 2 3 4 5 4 4 4 5 5 6 7 8 8 8 9 9 10 10 10 10 10 10 10
4 4 3 3 3 3 3 2 2 2 2 3 3 3 2 2 2 2 3 2 2 2 2 3 3 3 3 3 4 4 4 2 3 3 4 4 5 5 5 4 4 4 4 4 3 2 3 5 5 4 4 4 4 5 6 6 7 8 8 8 8 9 10 10 10 10 10 10 10
3 3 3 4 4 4 3 3 3 3 3 3 3 3 3 2 2 3 2 2 2 2 3 2 2 3 3 4 4 4 4 3 3 4 4 5 5 4 4 4 4 5 4 3 3 4 5 5 4 4 3 3 4 5 6 6 7 7 8 8 9 10 10 10 9 9 10 9 9
3 3 4 5 5 4 4 3 4 4 4 4 3 3 2 2 2 3 3 3 3 2 2 2 2 3 4 5 5 4 4 3 4 5 5 5 4 4 4 3 4 4 3 4 5 4 4 4 3 3 3 4 4 5 5 6 6 7 8 9 9 10 10 10 9 9 9 9 8
3 4 6 6 5 5 4 4 5 5 4 4 3 3 2 2 3 3 3 3 2 1 1 1 2 3 5 5 5 4 4 4 6 6 6 5 4 3 3 3 3 2 4 5 4 4 4 3 3 3 3 3 4 4 4 5 5 6 7 8 9 9 9 9 10 10 9 9 7
5 7 8 7 6 6 5 5 5 4 4 3 3 2 2 3 3 2 2 2 1 1 2 3 4 5 5 4 4 4 4 5 6 7 6 5 4 3 3 3 2 2 5 5 6 7 6 4 3 3 3 3 3 3 3 4 5 5 6 7 8 8 9 9 9 9 9 8 7
7 9 9 8 7 6 6 6 5 4 3 3 3 3 3 2 2 2 2 2 2 2 3 5 5 5 4 3 3 4 4 5 6 6 6 4 4 3 2 2 1 3 6 6 8 8 8 7 5 4 2 2 2 3 3 4 4 5 6 6 7 8 8 8 8 8 7 7 7
9 9 9 7 7 7 6 5 4 3 3 3 3 3 2 1 1 2 2 2 3 4 5 6 5 4 3 2 3 4 5 5 5 5 5 4 3 3 2 2 1 3 7 9 9 9 9 8 6 5 3 2 2 2 3 3 4 5 5 6 7 7 8 8 8 7 7 6 7
9 8 8 7 7 7 6 4 4 3 3 3 2 1 1 2 2 2 2 3 5 5 5 5 4 3 2 2 3 4 5 5 5 4 4 3 3 2 2 2 2 5 9 11 10 9 8 8 6 5 4 2 2 2 3 3 4 4 5 5 6 7 7 7 7 6 6 6 6
8 8 7 7 7 6 5 4 3 3 3 2 1 1 2 2 2 2 4 6 6 6 5 4 3 2 2 2 3 4 5 5 5 4 3 3 2 1 1 1 3 7 11 12 10 9 8 7 6 5 4 3 2 2 2 3 3 4 4 5 5 6 6 6 5 6 6 6 6
8 7 6 6 6 5 4 4 3 3 2 1 1 1 1 0 2 4 6 7 7 6 4 3 2 2 2 3 3 4 4 4 4 3 3 3 2 2 2 2 3 8 12 12 10 9 8 7 6 5 4 3 2 2 2 3 3 4 4 5 6 6 6 6 6 6 6 5 5
7 6 6 5 4 4 4 3 3 2 1 1 2 1 1 2 4 5 6 6 5 5 4 3 3 3 3 3 4 4 4 4 3 2 2 3 3 3 3 4 2 8 12 11 10 9 8 7 6 4 3 2 2 2 2 3 4 4 5 5 6 6 6 5 6 6 6 6 5
7 6 5 4 4 4 3 3 2 2 1 1 2 2 3 4 5 5 5 4 4 4 4 4 4 4 4 4 4 4 4 3 2 2 2 2 3 2 3 5 2 7 12 11 10 9 8 7 5 4 2 2 2 2 3 4 4 5 5 6 6 6 6 5 5 5 6 6 5
6 5 5 4 4 3 3 3 2 1 1 2 2 3 4 5 5 5 5 4 4 4 4 4 4 4 4 4 5 5 4 3 1 1 1 2 2 2 3 4 2 7 12 11 10 9 7 6 5 3 3 3 3 3 3 4 4 4 4 5 5 6 6 6 6 6 6 6 5
6 5 5 4 4 3 3 2 2 1 2 3 3 4 5 5 5 5 5 4 3 3 4 4 4 4 4 4 4 4 3 1 0 0 1 1 2 2 2 3 1 8 13 11 10 8 7 6 4 4 4 4 3 3 4 5 4 4 5 5 5 6 6 6 6 6 6 6 5
5 5 4 4 4 3 2 2 2 3 3 4 5 5 5 5 5 5 4 3 3 3 4 4 4 4 4 4 4 4 3 2 2 2 2 2 2 2 2 3 2 9 13 11 10 8 7 5 4 4 4 4 3 3 4 5 5 5 5 6 6 6 6 6 6 6 6 6 5
4 4 3 3 3 2 2 2 4 5 5 5 5 5 4 4 5 4 4 3 4 4 4 4 4 4 4 5 4 4 3 3 3 3 2 2 2 2 2 4 2 8 13 10 9 8 7 6 5 4 4 3 2 3 4 4 4 5 5 5 6 6 6 6 5 5 5 5 5
3 2 1 1 1 1 3 4 6 6 6 5 5 4 4 5 4 4 4 3 4 4 4 4 4 4 4 4 4 4 3 2 2 2 2 2 2 2 3 4 2 7 11 10 9 8 7 6 5 4 4 3 2 3 3 4 3 4 5 5 5 5 5 5 5 5 6 6 6
1 2 2 2 2 4 6 6 6 6 5 5 4 4 4 4 4 4 4 3 4 4 4 4 4 4 4 4 4 3 2 1 1 1 1 2 2 3 3 3 2 4 8 11 10 9 7 6 5 5 4 2 2 3 3 3 3 4 4 4 4 5 5 4 4 5 6 7 8
4 4 4 4 6 7 8 8 6 5 4 4 4 5 5 4 4 4 3 3 3 3 3 3 4 4 4 4 4 3 2 1 1 1 2 2 2 2 2 2 2 2 5 12 11 10 8 7 6 5 4 2 2 2 3 3 4 4 4 4 4 4 5 5 4 5 5 7 10
5 5 5 7 8 8 8 7 6 5 4 4 4 5 5 4 4 3 3 3 3 3 3 3 4 4 4 4 4 3 2 2 2 2 2 2 1 2 2 2 2 3 3 11 12 11 9 8 7 6 4 2 1 2 2 3 3 4 4 4 4 4 4 4 5 5 5 6 8
5 5 6 7 7 7 6 6 6 5 4 4 5 5 4 3 3 3 3 3 3 3 3 3 4 5 5 4 3 3 3 3 3 3 2 1 2 3 4 3 3 4 4 10 12 11 9 9 8 6 5 2 1 1 2 3 3 4 4 4 4 4 4 4 4 5 5 5 5
Wind_Direction
117 110 99 85 93 106 107 97 79 47 7 87 134 134 113 40 24 17 8 359 11 30 42 47 34 21 11 5 358 350 341 330 328 328 326 319 318 329 347 4 9 9 5 0 355 350 347 344 344 341 336 332 328 328 332 343 346 344 341 341 344 347 350 353 348 341 334 328 322
122 122 121 118 118 117 119 121 142 173 190 174 164 135 86 53 25 1 349 347 1 27 41 43 33 22 12 5 357 346 335 326 326 327 326 324 330 343 359 6 5 3 360 354 347 341 336 336 338 337 334 331 332 334 341 353 360 358 354 351 349 350 351 352 340 326 317 311 303
119 123 128 132 134 131 130 141 167 177 173 151 132 106 77 56 24 357 344 340 354 18 35 37 27 18 12 3 351 339 329 324 328 331 331 331 338 349 359 360 353 349 344 338 335 335 337 344 348 348 344 341 339 339 344 357 9 7 357 342 324 303 284 266 263 264 266 267 278
101 98 99 103 115 124 133 152 171 160 136 112 105 89 71 49 22 360 347 339 353 13 29 26 17 14 9 359 342 332 328 327 332 335 336 336 342 348 354 353 345 339 335 333 338 344 352 358 357 348 332 320 313 310 311 328 359 229 229 241 241 238 234 230 233 241 252 265 285
95 88 84 89 117 132 141 150 140 117 103 103 94 79 63 43 20 1 350 345 358 10 17 14 6 3 357 349 336 330 329 331 336 340 341 341 342 346 348 347 340 335 333 335 344 353 0 358 335 286 268 262 261 256 251 245 241 232 223 214 217 224 233 241 257 276 295 310 320
115 115 122 148 165 164 156 152 145 139 130 121 96 79 63 43 22 4 353 348 355 2 5 4 357 351 347 343 335 331 329 331 335 341 344 345 344 343 342 340 334 330 329 333 340 346 341 295 245 236 237 238 244 251 264 293 313 320 316 302 285 283 292 305 320 328 330 327 325
138 147 159 171 174 172 165 161 155 150 142 123 98 84 68 46 22 3 351 346 351 354 354 346 336 338 343 344 334 327 324 326 333 341 345 347 343 339 336 333 329 327 325 325 326 320 293 257 251 251 255 263 280 313 338 351 350 346 340 333 330 332 334 334 333 329 324 319 320
151 158 164 165 166 167 166 160 152 146 136 118 104 94 82 54 17 353 343 346 350 348 341 327 325 333 341 339 325 316 314 319 329 339 345 345 339 333 328 325 324 322 320 317 316 311 304 288 292 307 325 337 342 354 1 1 357 351 344 336 332 330 327 324 321 319 317 316 317
159 160 159 155 159 165 166 157 150 144 138 126 118 113 109 104 15 316 326 349 353 342 328 317 325 332 335 325 312 306 307 315 326 337 342 342 332 323 317 315 316 314 311 309 316 323 330 333 340 347 351 353 354 359 2 1 355 348 341 333 328 325 323 321 320 319 318 317 316
161 159 157 154 161 166 168 162 156 154 153 147 139 137 141 153 177 200 239 11 351 328 316 315 327 330 325 313 305 303 307 318 329 336 338 334 323 314 309 306 306 303 301 306 329 346 352 354 351 349 349 352 355 358 360 359 350 343 336 330 325 322 320 319 319 319 319 318 317
160 160 160 155 159 166 171 167 160 157 156 153 146 146 155 167 172 169 150 70 342 319 316 324 330 327 318 309 307 310 318 331 342 342 337 327 314 306 301 300 298 297 300 320 355 6 4 358 347 341 340 345 354 358 357 353 345 337 332 326 323 321 320 319 319 319 318 317 316
160 160 158 151 156 164 167 161 151 147 147 142 126 114 134 191 156 134 113 67 347 329 326 331 330 324 317 312 315 322 332 342 346 342 332 318 306 298 294 292 292 296 307 344 12 15 3 349 336 330 330 339 352 356 353 347 340 334 329 325 324 322 320 319 318 317 315 314 313
162 160 155 150 160 164 161 145 133 130 136 133 108 77 18 329 56 88 87 42 356 339 332 330 327 323 318 316 322 332 343 350 346 337 321 306 297 292 290 289 293 302 321 5 23 17 352 331 320 318 324 338 348 351 350 346 341 335 331 328 325 322 318 316 315 313 311 310 309
166 162 157 159 167 168 159 141 133 133 150 148 99 79 36 331 45 71 71 32 354 334 324 322 323 322 321 322 330 340 348 350 339 324 309 298 294 293 296 300 308 317 333 5 20 357 321 304 306 315 328 343 348 350 351 351 346 340 334 330 325 321 317 314 312 311 309 308 306
169 166 163 168 172 170 161 141 125 110 41 7 50 54 39 344 64 77 77 35 334 316 311 312 316 320 322 327 337 346 348 343 326 312 303 299 299 302 308 316 321 324 327 330 325 301 288 292 314 336 352 357 354 354 353 353 348 342 335 329 324 320 317 315 313 312 310 308 307
174 172 171 176 177 174 163 140 118 74 5 353 8 14 9 346 68 83 88 80 291 288 292 300 310 316 322 330 342 346 340 326 312 305 303 303 307 311 315 319 320 318 317 314 310 298 295 319 16 25 21 13 5 359 355 351 346 339 333 327 323 320 318 317 316 314 312 310 309
179 178 178 181 182 179 170 153 144 142 305 308 310 308 310 341 68 89 108 195 247 266 280 294 304 308 314 322 334 333 323 310 303 301 303 307 311 312 313 312 311 311 313 316 313 310 313 355 57 57 45 31 17 6 357 349 342 336 331 326 323 321 320 319 317 316 315 313 313
183 182 181 185 188 189 184 175 176 199 245 272 278 280 274 259 229 204 208 220 231 252 270 285 293 297 302 306 312 309 302 296 296 299 304 308 310 309 307 304 304 308 313 315 311 308 310 344 62 64 55 40 24 9 357 348 341 336 331 328 325 322 320 319 318 317 316 315 315
184 184 185 192 198 202 201 196 198 213 237 260 264 262 255 247 245 246 245 238 230 237 256 274 281 286 292 298 298 294 288 287 294 299 304 307 305 301 299 297 301 305 308 305 298 294 300 26 63 60 49 33 17 4 356 350 344 339 334 329 325 322 319 318 317 316 315 315 314
184 187 192 201 209 214 214 210 211 220 237 251 254 253 252 251 251 253 254 252 240 239 251 265 275 283 292 297 294 290 286 286 296 300 301 299 295 292 291 293 298 299 296 288 284 289 320 56 59 52 39 21 8 0 357 354 347 340 333 326 322 319 318 317 316 315 314 313 312
188 196 203 213 221 222 220 217 218 227 238 245 249 251 252 252 253 254 255 256 252 249 252 261 275 289 298 299 293 290 289 292 295 293 288 283 282 283 286 291 294 290 285 282 293 340 37 51 50 44 31 12 3 1 0 357 347 337 329 323 319 317 316 315 314 312 311 309 309
194 204 217 226 226 224 222 220 221 228 235 241 244 247 250 253 254 254 252 248 244 245 250 262 282 296 298 292 287 286 288 291 285 278 272 269 270 275 282 289 287 285 289 320 7 37 51 52 43 33 22 6 2 3 2 357 344 333 325 319 316 315 314 313 311 308 307 306 307
203 222 231 232 228 224 221 220 222 227 231 235 240 245 251 257 260 258 253 244 239 241 250 272 291 290 284 278 277 280 285 287 280 273 268 264 267 274 282 288 284 298 344 42 42 46 51 51 37 25 16 8 5 4 2 353 339 328 321 317 315 313 312 309 306 304 303 304 308
224 234 235 232 228 225 224 224 226 229 232 235 241 250 259 266 267 266 263 260 259 267 283 293 278 270 266 266 271 278 284 285 281 277 274 271 273 279 286 287 293 357 51 68 63 62 61 52 38 27 19 13 9 6 359 347 333 323 316 313 311 309 306 303 301 301 302 305 311
235 236 235 230 227 225 226 228 230 232 235 240 246 254 261 266 271 276 285 298 314 317 298 278 267 261 256 257 264 272 275 273 274 274 275 275 275 279 283 285 308 61 81 87 86 82 77 69 58 42 27 18 13 3 351 338 326 318 311 307 304 302 299 297 296 297 301 308 319
236 235 233 228 225 225 227 229 230 232 235 243 248 252 258 265 283 309 332 343 327 298 277 268 264 259 252 249 258 261 262 261 263 267 271 275 277 280 284 287 337 86 99 107 103 97 90 84 74 60 37 21 10 356 343 331 322 313 306 301 298 295 293 292 293 298 306 317 330
235 234 231 226 225 226 227 228 227 229 235 242 249 255 265 296 351 3 355 328 295 277 269 265 260 252 240 237 251 259 262 263 264 269 273 277 278 280 284 294 7 89 108 122 117 109 101 95 87 76 56 26 6 350 337 327 317 309 303 298 293 290 289 289 295 305 318 331 339
234 232 229 227 227 228 229 229 229 233 238 246 254 270 337 18 15 357 322 293 279 271 265 260 254 246 237 235 253 265 273 278 279 280 280 279 275 274 280 301 49 98 115 128 123 116 109 104 97 86 69 31 1 343 332 323 314 306 299 293 289 288 289 294 307 320 331 338 340
233 230 228 228 230 231 233 234 237 241 246 252 265 29 45 37 356 306 287 279 273 268 262 255 250 244 244 252 264 272 276 280 282 283 283 282 279 282 307 320 77 108 120 130 126 122 118 115 106 94 75 41 5 340 330 322 311 303 296 289 287 290 296 308 321 330 334 335 335
234 231 228 228 230 232 235 238 242 243 245 243 89 80 74 335 279 277 276 275 273 270 267 265 264 262 262 265 267 268 269 271 277 285 297 310 322 342 349 321 81 114 126 136 132 130 127 121 110 97 77 37 360 335 325 316 304 295 288 284 287 295 306 319 326 329 329 328 327
240 235 232 229 230 232 235 239 240 237 221 144 123 137 202 251 266 270 271 272 273 273 274 276 276 274 271 270 268 267 267 268 280 304 335 349 351 354 339 308 65 119 132 143 139 135 130 121 111 100 82 30 352 334 321 308 295 287 282 284 293 303 314 322 324 324 322 320 320
243 241 236 233 232 233 235 238 235 224 192 157 171 206 238 256 262 265 265 263 267 270 272 273 272 272 272 273 271 270 270 274 295 337 3 2 348 341 325 304 43 121 136 149 142 136 129 121 114 103 80 29 1 337 317 300 289 283 283 289 300 311 318 321 318 316 315 315 315
244 242 239 237 235 234 234 234 227 211 194 197 218 238 251 260 260 261 262 261 264 267 269 270 269 270 272 275 276 274 274 278 309 350 360 346 326 320 314 302 61 125 138 152 142 136 131 125 116 96 61 32 8 338 314 298 290 288 291 299 309 314 316 316 313 312 312 311 310
242 240 238 236 235 232 229 224 219 217 223 231 241 249 254 260 262 263 264 263 263 265 266 265 266 267 269 271 271 271 270 263 268 292 295 291 292 296 300 296 97 131 140 152 144 139 135 125 107 77 49 31 10 335 313 302 298 298 303 308 312 313 313 312 310 310 310 310 309
240 236 233 231 228 224 221 220 230 236 241 246 251 254 255 259 263 265 266 264 263 263 262 260 259 259 261 262 262 259 250 224 205 203 217 236 251 263 274 282 132 135 140 153 146 140 133 116 94 67 46 29 3 329 311 304 302 304 308 311 311 310 309 309 311 312 313 312 311
243 236 227 219 214 211 217 232 243 247 248 249 252 255 258 261 263 264 265 264 263 262 260 257 254 254 256 258 256 246 230 210 201 197 197 203 218 236 254 271 163 138 141 154 146 138 128 111 90 66 46 29 357 326 312 306 304 306 309 310 308 308 309 313 317 319 319 316 313
256 249 225 195 209 238 247 248 248 250 252 252 254 257 260 262 263 263 262 262 261 260 258 255 253 253 256 260 258 249 230 205 195 189 189 190 203 220 239 260 203 145 144 155 148 140 129 115 96 74 53 29 355 328 314 308 306 306 307 306 304 308 313 319 323 323 320 316 311
342 23 28 13 320 284 268 256 250 249 251 254 255 257 258 260 260 260 258 256 258 259 259 258 257 259 262 267 268 262 246 202 191 195 206 211 214 219 229 246 245 156 148 153 152 146 136 125 107 87 67 35 354 328 314 308 306 304 303 302 304 313 322 329 328 323 317 313 309
38 29 10 336 299 281 270 263 258 255 254 255 256 257 257 257 257 258 258 257 260 263 266 267 267 268 269 271 271 266 250 214 210 212 219 227 217 209 209 222 258 211 156 147 153 151 143 131 115 99 82 52 360 327 313 306 303 300 300 302 311 322 330 331 325 318 311 307 308
33 10 336 302 284 276 272 273 274 273 271 267 266 264 263 262 263 265 266 266 267 268 268 268 268 267 266 264 262 256 246 231 225 222 222 229 180 148 148 177 236 239 177 146 155 155 150 137 124 112 99 74 16 325 308 301 298 298 302 311 324 330 330 325 317 310 305 304 306
9 333 301 282 276 276 280 283 285 285 284 280 276 273 270 269 269 270 270 268 265 262 262 260 261 260 258 253 247 242 239 235 232 226 219 219 141 141 153 178 216 230 197 151 158 160 157 145 135 127 119 109 84 312 297 294 295 300 309 325 334 332 324 314 308 304 302 304 306